This demonstration page uses our WeatherBlox Daily Observations layout. Learn more.

Left ArrowRight Arrow

Hourly Observations for February 28, 2016

Temp ( °F °C ) Dew Point ( °F °C ) Humidity (%) Winds ( mph kmh ) Pressure ( in mb ) Visibility ( mi km ) Precip ( " mm )
12:58 am 00:58 Clear 59 15.2 33 0.8 38 38 SSW 12 19 29.55 1001 10 16 0.00 0.00
1:58 am 01:58 Clear 58 14.2 35 1.7 43 43 SW 12 19 29.56 1001 10 16 0.00 0.00
2:58 am 02:58 Clear 56 13.5 36 2.3 47 47 SSW 9 15 29.53 1000 10 16 0.00 0.00
3:58 am 03:58 Clear 55 12.5 37 2.5 51 51 S 3 6 29.52 1000 10 16 0.00 0.00
4:58 am 04:58 Clear 50 10.2 37 3 61 61 S 3 6 29.50 999 10 16 0.00 0.00
5:58 am 05:58 Clear 49 9.3 37 2.6 63 63 SW 5 7 29.50 999 10 16 0.00 0.00
6:58 am 06:58 Clear 48 9 34 1 58 58 WNW 9 15 29.53 1000 10 16 0.00 0.00
7:58 am 07:58 Cloudy 52 11 32 0 47 47 NW 23 37 29.57 1001 10 16 0.00 0.00
8:58 am 08:58 Sunny 54 12 36 2 51 51 NNW 17 28 29.62 1003 10 16 0.00 0.00
9:58 am 09:58 Sunny 55 13 37 3 51 51 NW 22 35 29.67 1005 10 16 0.00 0.00
10:58 am 10:58 Mostly Cloudy 54 12 39 4 58 58 NW 24 39 29.72 1006 10 16 0.00 0.00
11:35 am 11:35 Cloudy 52 11 37 3 58 58 NNW 25 41 29.77 1008 10 16 0.00 0.00
11:58 am 11:58 Mostly Cloudy 52 11 37 3 58 58 NNW 22 35 29.78 1008 10 16 0.00 0.00
12:39 pm 12:39 Mostly Cloudy 52 11 36 2 54 54 NNW 30 48 29.80 1009 10 16 0.00 0.00
12:45 pm 12:45 Mostly Cloudy 52 11 36 2 54 54 NW 30 48 29.80 1009 10 16 0.00 0.00
12:48 pm 12:48 Mostly Cloudy 52 11 36 2 54 54 NNW 26 43 29.80 1009 10 16 0.00 0.00
12:58 pm 12:58 Partly Cloudy 52 11 34 1 50 50 NW 29 46 29.82 1010 10 16 0.00 0.00
1:58 pm 13:58 Sunny 53 11.5 31 -0.3 44 44 NW 30 48 29.84 1011 10 16 0.00 0.00
2:58 pm 14:58 Partly Cloudy 51 10.4 30 -0.9 46 46 NW 24 39 29.87 1012 10 16 0.00 0.00
3:59 pm 15:59 Partly Cloudy 52 11.3 31 -0.7 44 44 NNW 22 35 29.91 1013 10 16 0.00 0.00
4:58 pm 16:58 Mostly Sunny 52 11.2 29 -1.5 42 42 NW 17 28 29.92 1013 10 16 0.00 0.00
5:58 pm 17:58 Sunny 51 10.3 31 -0.5 47 47 NW 10 17 29.94 1014 10 16 0.00 0.00
6:58 pm 18:58 Mostly Clear 48 8.9 31 -0.5 52 52 NW 10 17 29.97 1015 10 16 0.00 0.00
7:58 pm 19:58 Clear 39 3.9 31 -0.7 72 72 NW 7 11 29.99 1016 10 16 0.00 0.00
8:58 pm 20:58 Clear 36 2 30 -1 81 81 WNW 3 6 30.01 1016 10 16 0.00 0.00
9:58 pm 21:58 Clear 35 1.5 30 -1.2 82 82 WNW 3 6 30.01 1016 10 16 0.00 0.00
10:58 pm 22:58 Clear 32 -0.2 29 -1.7 90 90 SSE 3 6 30.00 1016 10 16 0.00 0.00
11:58 pm 23:58 Clear 27 -2.9 26 -3.1 99 99 WSW 2 4 29.98 1015 10 16 0.00 0.00

Powered by AerisWeather